When you browse on this site, cookies collect data to enhance your experience and personalize the content and advertising you see.
Visit our Privacy Policy to learn more. By continuing to use the site, you agree to this use of cookies and data.
  • In Lithuania
  • List of Countries
  • For 7 days
  • Water Temperature
  • Weather Map
  • Weather Widgets
  • user-avatar
    Login

    Hourly Weather Vanadzor

    Today, 9 December, Monday

    Time Temperature Precipitation Wind Pressure Humidity
    00:00 -3°C° 0 mm 2 mps 630 mmHg 81%
    01:00 -3°C° 0 mm 2 mps 630 mmHg 81%
    02:00 -3°C° 0 mm 2 mps 630 mmHg 82%
    03:00 -3°C° 0 mm 2 mps 630 mmHg 85%
    04:00 -3°C° 0 mm 2 mps 630 mmHg 84%
    05:00 -4°C° 0 mm 2 mps 630 mmHg 84%
    06:00 -4°C° 0 mm 2 mps 630 mmHg 84%
    07:00 -3°C° 0 mm 2 mps 630 mmHg 83%
    08:00 -3°C° 0 mm 2 mps 631 mmHg 82%
    09:00 -2°C° 0 mm 2 mps 632 mmHg 82%
    10:00 -1°C° 0 mm 2 mps 632 mmHg 80%
    11:00 +1°C° 0 mm 2 mps 632 mmHg 78%
    12:00 +2°C° 0 mm 2 mps 632 mmHg 76%
    13:00 +2°C° 0 mm 2 mps 632 mmHg 77%
    14:00 +1°C° 0 mm 2 mps 632 mmHg 78%
    15:00 +1°C° 0 mm 2 mps 632 mmHg 79%
    16:00 -1°C° 0 mm 2 mps 632 mmHg 80%
    17:00 -2°C° 0 mm 2 mps 632 mmHg 81%
    18:00 -3°C° 0 mm 2 mps 632 mmHg 82%
    19:00 -4°C° 0 mm 2 mps 632 mmHg 80%
    20:00 -4°C° 0 mm 2 mps 632 mmHg 79%
    21:00 -4°C° 0 mm 2 mps 632 mmHg 78%
    22:00 -5°C° 0 mm 2 mps 632 mmHg 77%
    23:00 -5°C° 0 mm 2 mps 633 mmHg 76%

    Tomorrow, 10 December, Tuesday

    Time Temperature Precipitation Wind Pressure Humidity
    00:00 -5°C° 0 mm 2 mps 633 mmHg 74%
    01:00 -5°C° 0 mm 2 mps 633 mmHg 75%
    02:00 -5°C° 0 mm 2 mps 632 mmHg 75%
    03:00 -5°C° 0 mm 2 mps 632 mmHg 76%
    04:00 -5°C° 0 mm 2 mps 632 mmHg 77%
    05:00 -5°C° 0 mm 2 mps 633 mmHg 77%
    06:00 -5°C° 0 mm 2 mps 633 mmHg 78%
    07:00 -4°C° 0 mm 2 mps 633 mmHg 77%
    08:00 -3°C° 0 mm 2 mps 633 mmHg 77%
    09:00 -3°C° 0 mm 2 mps 634 mmHg 76%
    10:00 -2°C° 0 mm 2 mps 634 mmHg 74%
    11:00 +1°C° 0 mm 1 mps 634 mmHg 73%
    12:00 +2°C° 0 mm 1 mps 634 mmHg 72%
    13:00 +2°C° 0 mm 1 mps 633 mmHg 73%
    14:00 +2°C° 0 mm 1 mps 633 mmHg 75%
    15:00 +2°C° 0 mm 1 mps 633 mmHg 77%
    16:00 +1°C° 0 mm 1 mps 632 mmHg 78%
    17:00 0°C° 0 mm 1 mps 632 mmHg 80%
    18:00 -4°C° 0 mm 2 mps 632 mmHg 82%
    19:00 -4°C° 0 mm 2 mps 632 mmHg 81%
    20:00 -4°C° 0 mm 2 mps 633 mmHg 80%
    21:00 -4°C° 0 mm 2 mps 633 mmHg 79%
    22:00 -4°C° 0 mm 2 mps 633 mmHg 79%
    23:00 -4°C° 0 mm 2 mps 633 mmHg 79%

    Day after tomorrow, 11 December, Wednesday

    Time Temperature Precipitation Wind Pressure Humidity
    00:00 -4°C° 0 mm 2 mps 633 mmHg 79%
    01:00 -4°C° 0 mm 2 mps 632 mmHg 79%
    02:00 -4°C° 0 mm 2 mps 632 mmHg 79%
    03:00 -4°C° 0 mm 2 mps 632 mmHg 79%
    04:00 -4°C° 0 mm 2 mps 632 mmHg 79%
    05:00 -4°C° 0 mm 2 mps 632 mmHg 79%
    06:00 -5°C° 0 mm 2 mps 632 mmHg 79%
    07:00 -4°C° 0 mm 2 mps 632 mmHg 78%
    08:00 -3°C° 0 mm 2 mps 633 mmHg 77%
    09:00 -2°C° 0 mm 2 mps 633 mmHg 76%
    10:00 -1°C° 0 mm 2 mps 633 mmHg 74%
    11:00 +1°C° 0 mm 2 mps 633 mmHg 73%
    12:00 +2°C° 0 mm 2 mps 633 mmHg 71%
    13:00 +2°C° 0 mm 2 mps 633 mmHg 73%
    14:00 +1°C° 0 mm 2 mps 632 mmHg 74%
    15:00 +1°C° 0 mm 2 mps 632 mmHg 76%
    16:00 -1°C° 0 mm 2 mps 632 mmHg 78%
    17:00 -2°C° 0 mm 2 mps 632 mmHg 79%
    18:00 -4°C° 0 mm 2 mps 632 mmHg 81%
    19:00 -4°C° 0 mm 2 mps 632 mmHg 79%
    20:00 -4°C° 0 mm 2 mps 632 mmHg 78%
    21:00 -4°C° 0 mm 2 mps 633 mmHg 76%
    22:00 -4°C° 0 mm 2 mps 633 mmHg 76%
    23:00 -4°C° 0 mm 2 mps 633 mmHg 76%

    12 December, Thursday

    Time Temperature Precipitation Wind Pressure Humidity
    00:00 -4°C° 0 mm 2 mps 633 mmHg 76%
    01:00 -4°C° 0 mm 2 mps 632 mmHg 77%
    02:00 -5°C° 0 mm 2 mps 632 mmHg 77%
    03:00 -5°C° 0 mm 2 mps 632 mmHg 78%
    04:00 -5°C° 0 mm 2 mps 632 mmHg 79%
    05:00 -5°C° 0 mm 2 mps 632 mmHg 79%
    06:00 -5°C° 0 mm 2 mps 632 mmHg 80%
    07:00 -4°C° 0 mm 2 mps 632 mmHg 79%
    08:00 -4°C° 0 mm 2 mps 632 mmHg 78%
    09:00 -3°C° 0 mm 2 mps 632 mmHg 77%
    10:00 -2°C° 0 mm 2 mps 632 mmHg 75%
    11:00 -1°C° 0 mm 2 mps 632 mmHg 72%
    12:00 +1°C° 0 mm 2 mps 632 mmHg 70%
    13:00 +1°C° 0 mm 2 mps 631 mmHg 72%
    14:00 +1°C° 0 mm 2 mps 631 mmHg 74%
    15:00 -1°C° 0 mm 2 mps 630 mmHg 76%
    16:00 -2°C° 0 mm 2 mps 630 mmHg 77%
    17:00 -3°C° 0 mm 2 mps 629 mmHg 78%
    18:00 -4°C° 0 mm 2 mps 629 mmHg 79%
    19:00 -4°C° 0 mm 2 mps 629 mmHg 79%
    20:00 -4°C° 0 mm 2 mps 629 mmHg 78%
    21:00 -4°C° 0 mm 2 mps 629 mmHg 77%
    22:00 -4°C° 0 mm 2 mps 629 mmHg 77%
    23:00 -4°C° 0 mm 2 mps 628 mmHg 77%

    13 December, Friday

    Time Temperature Precipitation Wind Pressure Humidity
    00:00 -4°C° 0 mm 2 mps 628 mmHg 77%
    01:00 -4°C° 0 mm 2 mps 628 mmHg 78%
    02:00 -4°C° 0 mm 2 mps 628 mmHg 78%
    03:00 -4°C° 0 mm 2 mps 627 mmHg 79%
    04:00 -4°C° 0 mm 2 mps 627 mmHg 79%
    05:00 -2°C° 0 mm 1 mps 627 mmHg 79%
    06:00 -2°C° 0 mm 1 mps 627 mmHg 80%
    07:00 -1°C° 0 mm 1 mps 627 mmHg 78%
    08:00 -1°C° 0 mm 1 mps 628 mmHg 77%
    09:00 0°C° 0 mm 1 mps 628 mmHg 76%
    10:00 +1°C° 0 mm 1 mps 628 mmHg 74%
    11:00 +2°C° 0 mm 1 mps 628 mmHg 72%
    12:00 +3°C° 0 mm 1 mps 628 mmHg 71%
    13:00 +3°C° 0 mm 1 mps 628 mmHg 73%
    14:00 +3°C° 0 mm 1 mps 628 mmHg 75%
    15:00 +3°C° 0 mm 1 mps 627 mmHg 77%
    16:00 +1°C° 0 mm 1 mps 627 mmHg 79%
    17:00 0°C° 0 mm 1 mps 627 mmHg 82%
    18:00 -1°C° 0 mm 1 mps 627 mmHg 85%
    19:00 -1°C° 0 mm 1 mps 627 mmHg 83%
    20:00 -1°C° 0 mm 1 mps 628 mmHg 82%
    21:00 -2°C° 0 mm 1 mps 628 mmHg 81%
    22:00 -2°C° 0 mm 1 mps 628 mmHg 80%
    23:00 -4°C° 0 mm 2 mps 628 mmHg 79%

    14 December, Saturday

    Time Temperature Precipitation Wind Pressure Humidity
    00:00 -4°C° 0 mm 2 mps 628 mmHg 78%
    01:00 -4°C° 0 mm 2 mps 628 mmHg 79%
    02:00 -4°C° 0 mm 2 mps 628 mmHg 80%
    03:00 -4°C° 0 mm 2 mps 628 mmHg 81%
    04:00 -4°C° 0 mm 2 mps 628 mmHg 82%
    05:00 -4°C° 0 mm 2 mps 628 mmHg 82%
    06:00 -4°C° 0 mm 2 mps 628 mmHg 83%
    07:00 -4°C° 0 mm 2 mps 629 mmHg 83%
    08:00 -4°C° 0 mm 3 mps 629 mmHg 82%
    09:00 -4°C° 0 mm 3 mps 629 mmHg 81%
    10:00 -2°C° 0 mm 3 mps 629 mmHg 79%
    11:00 -1°C° 0 mm 3 mps 629 mmHg 78%
    12:00 0°C° 0 mm 3 mps 629 mmHg 76%
    13:00 0°C° 0.1 mm 3 mps 629 mmHg 77%
    14:00 0°C° 0.1 mm 3 mps 629 mmHg 79%
    15:00 0°C° 0.1 mm 3 mps 629 mmHg 80%
    16:00 -1°C° 0 mm 2 mps 629 mmHg 82%
    17:00 -2°C° 0 mm 2 mps 628 mmHg 84%
    18:00 -3°C° 0 mm 2 mps 628 mmHg 86%
    19:00 -3°C° 0 mm 2 mps 629 mmHg 85%
    20:00 -3°C° 0 mm 2 mps 629 mmHg 84%
    21:00 -3°C° 0 mm 2 mps 629 mmHg 83%
    22:00 -3°C° 0 mm 2 mps 629 mmHg 83%
    23:00 -4°C° 0 mm 2 mps 629 mmHg 82%
    Show more